北斗三号 M3 (BEIDOU 3M3)

Basic Information
目录编号:
43107
目录名称:
BEIDOU 3M3
国际标识:
2018-003A
轨道中心:
EARTH
卫星名称:
北斗三号 M3
卫星全名:
北斗三号 M3 (BEIDOU 3M3)
卫星状态:
在轨 (已飞行2984 天)
发射日期:
2018-01-11 UTC
国别 :
中国 (CN)
星等 :
--
Orbit Information
数据来源 国际轨道数据 AOE轨道数据
星历时间 2026-03-10T08:19:40+0800
4天前
查看轨道信息
2026-03-11T04:00:00+0800
3天前
查看轨道信息
半长轴 27906.039km 27906.009km
偏心率 0.0004805 0.0004836
轨道倾角 54.416° 54.415°
近地点辐角 71.603° 72.518°
升交点赤经 305.774° 305.746°
平近点角 288.499° 117.138°
近地点 21514.493km 21514.376km
远地点 21541.311km 21541.368km
周期 773.227分钟 773.226分钟
每日圈数 1.862325 1.862328
Detailed Information
平衡模式:
三轴稳定
制造商(研发单位):
中国科学院
制造商所在国:
中国
使用方式:
暂无
工作目标:
为全球用户提供连续、稳定、可靠的北斗导航、定位服务
预期寿命:
12年
Satellite Introduction
北斗卫星导航系统是中国着眼于国家安全和经济社会发展需要,自主建设运行的全球卫星导航系统,是为全球用户提供全天候、全天时、高精度的定位、导航和授时服务的国家重要时空基础设施。该卫星仍在工作。
2D Orbit Map
3D Orbit Map
Orbit Altitude Analysis Chart
Orbit Inclination Analysis Chart
Orbit Comprehensive Analysis Chart
View Comprehensive Chart